Wauseon Fulton County Airport, OH

6:42 AM EDT on August 20, 2017 (GMT -0400)
Fulton County

Weather History for KUSE - January, 2014

Change the Weather History Date:

Friday, January 10, 2014

  Actual Average (KTOL) Record (KTOL)
Temperature  
Mean Temperature 30 °F -  
Max Temperature 37 °F 28 °F 59 °F (1950)
Min Temperature 24 °F 14 °F -12 °F (1875)
Degree Days  
Heating Degree Days 34    
Moisture  
Dew Point 33 °F    
Average Humidity 97    
Maximum Humidity 100    
Minimum Humidity 93    
Precipitation  
Precipitation 0.00 in - - ()
Sea Level Pressure  
Sea Level Pressure 30.03 in    
Wind  
Wind Speed 8 mph (SSE)    
Max Wind Speed 15 mph    
Max Gust Speed 16 mph    
Visibility 2 miles    
Events Fog , Rain , Snow    
Averages and records for this station are not official NWS values.
T = Trace of Precipitation, MM = Missing Value Source: NWS Daily Summary

Daily Weather History Graph

Daily Weather History Graph

Search for Another Location

Airport or City:

Trip Planner

Search our weather history database for the weather conditions in past years. The results will help you decide how hot, cold, wet, or windy it might be!

Date:

Astronomy

Jan. 10, 2014 Rise Set
Actual Time 8:02 AM EST 5:25 PM EST
Civil Twilight 7:31 AM EST 5:56 PM EST
Nautical Twilight 6:57 AM EST 6:31 PM EST
Astronomical Twilight 6:23 AM EST 7:04 PM EST
Moon 1:30 PM EST (1/10) 3:08 AM EST (1/10)
Length of Visible Light 10h 25m
Length of Day
9h 23m
Waxing Gibbous, 75% of the Moon is Illuminated
Jan 10
Waxing Gibbous
Jan 15
Full
Jan 24
Last Quarter
Jan 30
New
Feb 6
First Quarter

Hourly Weather History & Observations

Time (EST) Temp. Windchill Dew Point Humidity Pressure Visibility Wind Dir Wind Speed Gust Speed Precip Events Conditions
12:15 AM 24.8 °F 16.9 °F 24.8 °F 100% 30.25 in 2.5 mi SE 6.9 mph - N/A   Overcast
12:35 AM 26.6 °F 21.2 °F 24.8 °F 93% 30.24 in 1.8 mi SE 4.6 mph - N/A   Overcast
12:55 AM 26.6 °F 21.2 °F 24.8 °F 93% 30.23 in 2.0 mi SE 4.6 mph - N/A   Overcast
1:15 AM 26.6 °F 20.0 °F 26.6 °F 100% 30.22 in 2.0 mi SSE 5.8 mph - N/A   Overcast
1:35 AM 26.6 °F 20.0 °F 26.6 °F 100% 30.21 in 1.5 mi SSE 5.8 mph - N/A Snow Light Snow
1:55 AM 26.6 °F 21.2 °F 26.6 °F 100% 30.21 in 1.5 mi SSE 4.6 mph - N/A Snow Light Snow
2:15 AM 28.4 °F 22.2 °F 26.6 °F 93% 30.20 in 1.5 mi SSE 5.8 mph - N/A Snow Light Snow
2:35 AM 28.4 °F 21.2 °F 28.4 °F 100% 30.20 in 2.5 mi SSE 6.9 mph - N/A   Overcast
2:55 AM 28.4 °F 19.7 °F 28.4 °F 100% 30.20 in 3.0 mi South 9.2 mph - N/A   Overcast
3:15 AM 30.2 °F 23.4 °F 28.4 °F 93% 30.20 in 3.0 mi South 6.9 mph - N/A   Overcast
3:35 AM 30.2 °F 22.6 °F 30.2 °F 100% 30.20 in 3.0 mi South 8.1 mph - N/A   Overcast
3:55 AM 30.2 °F 23.4 °F 30.2 °F 100% 30.19 in 3.0 mi South 6.9 mph - N/A   Overcast
4:15 AM 30.2 °F 23.4 °F 30.2 °F 100% 30.18 in 3.0 mi South 6.9 mph - N/A   Overcast
4:35 AM 30.2 °F 22.6 °F 30.2 °F 100% 30.17 in 3.0 mi South 8.1 mph - N/A   Overcast
4:55 AM 32.0 °F 24.8 °F 30.2 °F 93% 30.17 in 2.5 mi South 8.1 mph - N/A   Overcast
5:15 AM 32.0 °F 24.8 °F 32.0 °F 100% 30.16 in 1.0 mi South 8.1 mph - N/A   Overcast
5:35 AM 32.0 °F 24.8 °F 32.0 °F 100% 30.16 in 1.5 mi South 8.1 mph - N/A   Overcast
5:55 AM 32.0 °F 24.8 °F 32.0 °F 100% 30.15 in 2.0 mi South 8.1 mph - N/A   Overcast
6:15 AM 32.0 °F 25.6 °F 32.0 °F 100% 30.15 in 1.2 mi South 6.9 mph - N/A   Overcast
6:35 AM 32.0 °F 25.6 °F 32.0 °F 100% 30.15 in 2.0 mi SSW 6.9 mph - N/A   Overcast
6:55 AM 32.0 °F 25.6 °F 32.0 °F 100% 30.15 in 2.0 mi South 6.9 mph - N/A   Overcast
7:15 AM 32.0 °F 25.6 °F 32.0 °F 100% 30.16 in 2.5 mi South 6.9 mph - N/A   Overcast
7:35 AM 33.8 °F 27.0 °F 32.0 °F 93% 30.16 in 2.5 mi South 8.1 mph - N/A   Overcast
7:55 AM 33.8 °F 27.0 °F 32.0 °F 93% 30.16 in 2.5 mi South 8.1 mph - N/A   Overcast
8:15 AM 33.8 °F 27.0 °F 32.0 °F 93% 30.16 in 2.5 mi South 8.1 mph - N/A   Overcast
8:35 AM 33.8 °F 27.7 °F 32.0 °F 93% 30.15 in 2.5 mi South 6.9 mph - N/A   Overcast
8:55 AM 33.8 °F 27.7 °F 32.0 °F 93% 30.16 in 2.5 mi South 6.9 mph - N/A   Overcast
9:15 AM 33.8 °F 27.0 °F 32.0 °F 93% 30.16 in 3.0 mi South 8.1 mph - N/A   Overcast
9:35 AM 33.8 °F 25.8 °F 32.0 °F 93% 30.16 in 3.0 mi South 10.4 mph - N/A   Overcast
9:55 AM 33.8 °F 25.3 °F 33.8 °F 100% 30.16 in 1.2 mi South 11.5 mph - N/A   Overcast
10:15 AM 33.8 °F 27.0 °F 33.8 °F 100% 30.15 in 0.5 mi South 8.1 mph - N/A   Overcast
10:35 AM 33.8 °F 25.8 °F 33.8 °F 100% 30.15 in 1.5 mi South 10.4 mph - N/A   Overcast
10:55 AM 33.8 °F 25.8 °F 33.8 °F 100% 30.15 in 2.0 mi South 10.4 mph - N/A   Overcast
11:15 AM 33.8 °F 25.3 °F 33.8 °F 100% 30.14 in 1.5 mi South 11.5 mph - N/A   Overcast
11:35 AM 35.6 °F 28.0 °F 33.8 °F 93% 30.13 in 2.0 mi South 10.4 mph 16.1 mph N/A   Overcast
11:55 AM 35.6 °F 28.0 °F 33.8 °F 93% 30.11 in 2.0 mi South 10.4 mph - N/A   Overcast
12:15 PM 35.6 °F 28.0 °F 33.8 °F 93% 30.09 in 2.5 mi South 10.4 mph - N/A   Overcast
12:35 PM 35.6 °F 28.0 °F 33.8 °F 93% 30.07 in 3.0 mi SSE 10.4 mph - N/A   Overcast
12:55 PM 35.6 °F 29.2 °F 33.8 °F 93% 30.07 in 2.5 mi South 8.1 mph - N/A   Overcast
1:15 PM 35.6 °F 28.6 °F 33.8 °F 93% 30.05 in 3.0 mi South 9.2 mph - N/A   Overcast
1:35 PM 35.6 °F 29.9 °F 33.8 °F 93% 30.03 in 1.8 mi SE 6.9 mph - N/A   Overcast
1:55 PM 35.6 °F 29.2 °F 33.8 °F 93% 30.02 in 2.5 mi SSE 8.1 mph - N/A   Overcast
2:15 PM 35.6 °F 28.6 °F 33.8 °F 93% 30.01 in 2.5 mi SSE 9.2 mph - N/A   Overcast
2:35 PM 35.6 °F 27.1 °F 33.8 °F 93% 29.99 in 3.0 mi SSE 12.7 mph - N/A   Mostly Cloudy
2:55 PM 35.6 °F 27.1 °F 35.6 °F 100% 29.98 in 4.0 mi SSE 12.7 mph - N/A   Mostly Cloudy
3:15 PM 35.6 °F 28.0 °F 35.6 °F 100% 29.98 in 5.0 mi SSE 10.4 mph - N/A   Overcast
3:35 PM 37.4 °F 29.8 °F 35.6 °F 93% 29.98 in 5.0 mi SSE 11.5 mph - N/A   Overcast
3:55 PM 35.6 °F 26.2 °F 35.6 °F 100% 29.95 in 3.0 mi SSE 15.0 mph - N/A   Overcast
4:15 PM 37.4 °F 29.8 °F 35.6 °F 93% 29.95 in 3.0 mi SSE 11.5 mph - N/A   Overcast
4:35 PM 37.4 °F 29.8 °F 35.6 °F 93% 29.95 in 4.0 mi SSE 11.5 mph - N/A   Overcast
4:55 PM 37.4 °F 29.3 °F 35.6 °F 93% 29.93 in 4.0 mi SSE 12.7 mph - N/A   Overcast
5:15 PM 37.4 °F 28.9 °F 35.6 °F 93% 29.92 in 3.0 mi SSE 13.8 mph - N/A   Overcast
5:35 PM 37.4 °F 28.9 °F 35.6 °F 93% 29.90 in 4.0 mi SSE 13.8 mph - N/A   Overcast
5:55 PM 37.4 °F 28.9 °F 35.6 °F 93% 29.89 in 5.0 mi SSE 13.8 mph - N/A   Overcast
6:15 PM 37.4 °F 29.3 °F 35.6 °F 93% 29.88 in 4.0 mi SSE 12.7 mph - N/A   Overcast
6:35 PM 37.4 °F 28.9 °F 37.4 °F 100% 29.87 in 3.0 mi SSE 13.8 mph - N/A   Overcast
6:55 PM 35.6 °F 27.5 °F 35.6 °F 100% 29.86 in 2.0 mi SE 11.5 mph - N/A   Overcast
7:15 PM 37.4 °F 29.3 °F 37.4 °F 100% 29.84 in 0.5 mi SE 12.7 mph - N/A Fog Fog
7:35 PM 37.4 °F 29.3 °F 37.4 °F 100% 29.85 in 0.8 mi SSE 12.7 mph - N/A Rain Light Rain
7:55 PM 35.6 °F 27.5 °F 35.6 °F 100% 29.84 in 0.5 mi SSE 11.5 mph - N/A Rain Light Rain
8:15 PM 37.4 °F 30.3 °F 37.4 °F 100% 29.83 in 0.5 mi SSE 10.4 mph - N/A Fog Fog
8:35 PM 37.4 °F 30.8 °F 37.4 °F 100% 29.82 in 0.5 mi SSE 9.2 mph - N/A Rain Light Rain
8:55 PM 35.6 °F 28.0 °F 35.6 °F 100% 29.82 in 0.8 mi SSE 10.4 mph - N/A Rain Light Rain
9:15 PM 37.4 °F 29.3 °F 37.4 °F 100% 29.80 in 2.0 mi SSE 12.7 mph - N/A   Overcast
9:35 PM 35.6 °F 29.2 °F 35.6 °F 100% 29.79 in 2.0 mi South 8.1 mph - N/A Rain Light Rain
9:55 PM 37.4 °F 30.3 °F 37.4 °F 100% 29.77 in 2.0 mi SSE 10.4 mph - N/A Rain Light Rain
10:15 PM 37.4 °F 30.3 °F 37.4 °F 100% 29.75 in 1.5 mi SSE 10.4 mph - N/A Rain Light Rain
10:35 PM 37.4 °F 29.8 °F 37.4 °F 100% 29.73 in 0.8 mi SSE 11.5 mph - N/A Rain Light Rain
10:55 PM 37.4 °F 30.3 °F 37.4 °F 100% 29.72 in 0.8 mi SSE 10.4 mph - N/A Rain Light Rain
11:15 PM 37.4 °F 29.3 °F 37.4 °F 100% 29.69 in 0.8 mi SSE 12.7 mph - N/A Rain Light Rain
11:35 PM 37.4 °F 30.8 °F 37.4 °F 100% 29.67 in 0.2 mi SSE 9.2 mph - N/A   Light Drizzle
11:55 PM 37.4 °F 30.8 °F 37.4 °F 100% 29.66 in 0.2 mi SSE 9.2 mph - N/A Rain Light Rain